{"data":{"norad_id":43450,"intl_designator":"2018-041A","name":"APSTAR-6C","alt_names":[],"object_type":"PAYLOAD","status":"ACTIVE","operator":null,"country":"PRC","launch_date":"2018-05-03","launch_site_code":"XICLF","launch_vehicle":null,"mission":null,"orbit_class":"UNKNOWN","rcs_meters":null,"size_class":null,"mass_kg":null,"dimensions":null,"purposes":["comms"],"wikipedia_slug":null,"has_3d_model":false,"image_url":null,"decayed_at":null,"tle_current":{"epoch":"2026-05-24T12:58:49.992960Z","epoch_age_seconds":125236,"freshness":"FRESH","line1":"1 43450U 18041A   26144.54085640 -.00000322  00000+0  00000+0 0  9995","line2":"2 43450   0.0305 330.7798 0001823  21.6998 218.3601  1.00273723 29571","mean_motion":1.00273723,"eccentricity":0.0001823,"inclination_deg":0.0305,"raan_deg":330.7798,"arg_perigee_deg":21.6998,"mean_anomaly_deg":218.3601,"bstar":0,"rev_number":2957,"period_min":1436.0691484448,"perigee_km":35778.365146593,"apogee_km":35793.738209785,"semimajor_km":42164.188678189,"source":"CELESTRAK","updated_at":"2026-05-25T13:38:14.054001Z"}}}